EW7114 Weather Reports


Display with metric or nautical units.
time (UTC)temp
F
wind
direction
speed
MPH
gust
MPH
rain 1hr
in
rain 24hr
in
rain mn
in
humidity
%
barometer
mb
20260902143545 71 164 18.0 28.0 0.00 0.00 0.00 45 1003.3
20260902143043 71 139 13.0 32.0 0.00 0.00 0.00 43 1003.2
20260902142543 71 161 18.0 34.0 0.00 0.00 0.00 43 1003.2
20260902142043 70 151 15.0 27.0 0.00 0.00 0.00 44 1003.2
20260902141540 70 130 16.0 26.0 0.00 0.00 0.00 44 1003.3
20260902141039 69 155 18.0 26.0 0.00 0.00 0.00 45 1003.4
20260902140540 68 127 14.0 29.0 0.00 0.00 0.00 48 1003.4
20260902140041 68 157 16.0 24.0 0.00 0.00 0.00 49 1003.5
20260902135538 68 140 13.0 21.0 0.00 0.00 0.00 48 1003.4
20260902135038 68 142 15.0 24.0 0.00 0.00 0.00 49 1003.4
20260902134538 67 145 17.0 24.0 0.00 0.00 0.00 49 1003.5
20260902134038 66 141 11.0 19.0 0.00 0.00 0.00 52 1003.4
20260902133537 65 126 14.0 19.0 0.00 0.00 0.00 52 1003.4
20260902133040 64 153 13.0 17.0 0.00 0.00 0.00 53 1003.6
20260902132537 64 151 12.0 19.0 0.00 0.00 0.00 52 1003.5
20260902132036 65 174 14.0 19.0 0.00 0.00 0.00 52 1003.5
20260902131541 64 145 13.0 18.0 0.00 0.00 0.00 53 1003.6
20260902131042 65 161 12.0 18.0 0.00 0.00 0.00 52 1003.5
20260902130539 66 167 12.0 20.0 0.00 0.00 0.00 52 1003.5
20260902130136 65 132 11.0 20.0 0.00 0.00 0.00 52 1003.5
20260902125536 65 163 13.0 20.0 0.00 0.00 0.00 52 1003.3
20260902125036 65 133 13.0 22.0 0.00 0.00 0.00 53 1003.4
20260902124536 66 153 12.0 22.0 0.00 0.00 0.00 52 1003.4
20260902124035 65 161 12.0 18.0 0.00 0.00 0.00 53 1003.4
20260902123534 66 183 13.0 18.0 0.00 0.00 0.00 52 1003.5
20260902123035 65 140 13.0 17.0 0.00 0.00 0.00 53 1003.4
20260902122538 66 148 12.0 19.0 0.00 0.00 0.00 52 1003.4
20260902122034 67 157 12.0 19.0 0.00 0.00 0.00 51 1003.4
20260902121533 68 134 14.0 22.0 0.00 0.00 0.00 51 1003.2
20260902121033 68 134 13.0 22.0 0.00 0.00 0.00 50 1003.3
20260902120533 68 126 15.0 26.0 0.00 0.00 0.00 51 1003.3
20260902120134 68 127 18.0 26.0 0.00 0.00 0.00 50 1003.1
20260902115532 67 155 13.0 18.0 0.00 0.00 0.00 51 1003.2
20260902115032 68 149 11.0 17.0 0.00 0.00 0.00 49 1003.3
20260902114532 68 133 11.0 23.0 0.00 0.00 0.00 49 1003.3
20260902114031 69 135 17.0 22.0 0.00 0.00 0.00 49 1003.3
20260902113531 69 147 12.0 26.0 0.00 0.00 0.00 48 1003.3
20260902113032 69 126 13.0 26.0 0.00 0.00 0.00 48 1003.4
20260902112530 69 120 17.0 23.0 0.00 0.00 0.00 48 1003.4
20260902112031 69 152 14.0 30.0 0.00 0.00 0.00 49 1003.5
20260902111529 69 144 14.0 30.0 0.00 0.00 0.00 48 1003.5
20260902111027 68 134 13.0 22.0 0.00 0.00 0.00 50 1003.6
20260902110526 67 144 11.0 27.0 0.00 0.00 0.00 51 1003.5
20260902110026 67 168 17.0 27.0 0.00 0.00 0.00 52 1003.6
20260902105524 65 130 11.0 22.0 0.00 0.00 0.00 52 1003.5
20260902105025 64 138 13.0 22.0 0.00 0.00 0.00 53 1003.6
20260902104524 63 124 6.0 15.0 0.00 0.00 0.00 53 1003.6
20260902104026 64 153 8.0 17.0 0.00 0.00 0.00 53 1003.5
20260902103523 64 128 12.0 17.0 0.00 0.00 0.00 53 1003.6
20260902103036 63 144 12.0 15.0 0.00 0.00 0.00 52 1003.7
20260902102524 63 172 11.0 16.0 0.00 0.00 0.00 53 1003.6
20260902102023 63 142 10.0 17.0 0.00 0.00 0.00 52 1003.6
20260902101538 63 149 11.0 18.0 0.00 0.00 0.00 52 1003.6
20260902101026 63 140 12.0 21.0 0.00 0.00 0.00 52 1003.6
20260902100522 63 164 12.0 22.0 0.00 0.00 0.00 53 1003.7
20260902100022 62 185 11.0 17.0 0.00 0.00 0.00 53 1003.7
20260902095521 60 153 9.0 16.0 0.00 0.00 0.00 52 1003.7
20260902095020 60 157 7.0 14.0 0.00 0.00 0.00 53 1003.7
20260902094520 61 157 9.0 17.0 0.00 0.00 0.00 53 1003.7
20260902094019 60 126 12.0 16.0 0.00 0.00 0.00 52 1003.7
20260902093519 60 155 11.0 15.0 0.00 0.00 0.00 53 1003.7
20260902093018 61 157 10.0 18.0 0.00 0.00 0.00 53 1003.8
20260902092517 62 159 12.0 19.0 0.00 0.00 0.00 53 1003.7
20260902092018 61 145 12.0 19.0 0.00 0.00 0.00 52 1003.8
20260902091516 60 143 12.0 16.0 0.00 0.00 0.00 52 1003.8
20260902091014 60 166 9.0 15.0 0.00 0.00 0.00 53 1003.8
20260902090513 61 146 11.0 16.0 0.00 0.00 0.00 53 1003.7
20260902090012 62 166 12.0 16.0 0.00 0.00 0.00 53 1003.8
20260902085511 63 136 10.0 16.0 0.00 0.00 0.00 53 1003.9
20260902085011 65 125 8.0 16.0 0.00 0.00 0.00 51 1003.8
20260902084510 67 154 10.0 15.0 0.00 0.00 0.00 49 1003.8
20260902084010 67 146 9.0 17.0 0.00 0.00 0.00 49 1003.8
20260902083509 65 137 14.0 17.0 0.00 0.00 0.00 52 1003.8
20260902083008 62 127 10.0 14.0 0.00 0.00 0.00 53 1003.8
20260902082508 63 128 11.0 18.0 0.00 0.00 0.00 53 1003.9
20260902082008 64 125 12.0 18.0 0.00 0.00 0.00 53 1003.9
20260902081508 65 127 11.0 19.0 0.00 0.00 0.00 53 1003.9
20260902081007 65 120 14.0 19.0 0.00 0.00 0.00 53 1003.9
20260902080515 64 112 13.0 18.0 0.00 0.00 0.00 53 1004.0
20260902080006 65 132 12.0 15.0 0.00 0.00 0.00 53 1004.0
20260902075505 65 132 11.0 16.0 0.00 0.00 0.00 52 1003.9
20260902075005 66 130 12.0 19.0 0.00 0.00 0.00 52 1003.9
20260902074505 66 117 14.0 19.0 0.00 0.00 0.00 52 1003.9
20260902074105 66 123 14.0 17.0 0.00 0.00 0.00 52 1003.9
20260902073504 66 128 11.0 14.0 0.00 0.00 0.00 52 1003.8
20260902073003 67 146 10.0 18.0 0.00 0.00 0.00 51 1003.9
20260902072502 67 132 14.0 18.0 0.00 0.00 0.00 50 1003.9
20260902072001 67 124 14.0 18.0 0.00 0.00 0.00 51 1003.8
20260902071502 67 124 12.0 18.0 0.00 0.00 0.00 51 1003.8
20260902071003 67 120 12.0 20.0 0.00 0.00 0.00 51 1003.8
20260902070600 67 142 14.0 20.0 0.00 0.00 0.00 51 1003.7
20260902065558 66 118 15.0 21.0 0.00 0.00 0.00 51 1003.8
20260902065058 66 138 14.0 20.0 0.00 0.00 0.00 52 1003.8
20260902064617 66 120 13.0 17.0 0.00 0.00 0.00 52 1003.7
20260902064056 66 116 14.0 19.0 0.00 0.00 0.00 52 1003.8
20260902063554 66 130 14.0 19.0 0.00 0.00 0.00 52 1003.8
20260902063056 65 128 11.0 16.0 0.00 0.00 0.00 52 1003.8
20260902062554 64 123 12.0 16.0 0.00 0.00 0.00 53 1003.9
20260902062051 62 135 10.0 14.0 0.00 0.00 0.00 53 1003.9
20260902061553 62 122 10.0 14.0 0.00 0.00 0.00 53 1003.9
20260902061049 62 130 9.0 13.0 0.00 0.00 0.00 53 1003.9
20260902060550 64 130 8.0 15.0 0.00 0.00 0.00 52 1003.9
20260902060051 65 121 10.0 15.0 0.00 0.00 0.00 51 1004.0
20260902055545 65 120 11.0 16.0 0.00 0.00 0.00 51 1004.0
20260902055043 65 118 12.0 17.0 0.00 0.00 0.00 51 1004.0
20260902054543 65 122 14.0 17.0 0.00 0.00 0.00 50 1004.0
20260902054041 66 119 11.0 16.0 0.00 0.00 0.00 49 1004.1
20260902053539 66 115 12.0 16.0 0.00 0.00 0.00 49 1004.1
20260902053038 66 120 12.0 15.0 0.00 0.00 0.00 49 1004.1
20260902052541 67 109 12.0 15.0 0.00 0.00 0.00 48 1004.1
20260902052034 67 122 9.0 15.0 0.00 0.00 0.00 49 1004.1
20260902051533 67 130 10.0 16.0 0.00 0.00 0.00 48 1004.1
20260902051032 67 109 10.0 17.0 0.00 0.00 0.00 49 1004.1
20260902050533 67 100 11.0 17.0 0.00 0.00 0.00 48 1004.1
20260902050029 68 115 11.0 16.0 0.00 0.00 0.00 48 1004.0
20260902045527 68 116 10.0 18.0 0.00 0.00 0.00 48 1004.0
20260902045026 69 121 13.0 18.0 0.00 0.00 0.00 47 1004.1
20260902044526 68 120 10.0 16.0 0.00 0.00 0.00 48 1004.1
20260902044026 69 103 11.0 17.0 0.00 0.00 0.00 47 1004.0
20260902043526 67 132 11.0 17.0 0.00 0.00 0.00 49 1004.1
20260902043025 67 129 10.0 13.0 0.00 0.00 0.00 50 1004.1
20260902042526 68 116 7.0 15.0 0.00 0.00 0.00 50 1004.1
20260902042026 67 109 10.0 15.0 0.00 0.00 0.00 51 1004.1
20260902041524 65 117 8.0 10.0 0.00 0.00 0.00 53 1004.0
20260902041026 65 164 5.0 10.0 0.00 0.00 0.00 53 1004.0
20260902040520 65 118 7.0 11.0 0.00 0.00 0.00 53 1004.1
20260902040020 65 120 9.0 11.0 0.00 0.00 0.00 52 1004.2
20260902035518 65 120 7.0 10.0 0.00 0.00 0.00 52 1004.1
20260902035017 65 125 7.0 10.0 0.00 0.00 0.00 52 1004.0
20260902034516 66 118 8.0 12.0 0.00 0.00 0.00 52 1004.0
20260902034014 66 128 8.0 12.0 0.00 0.00 0.00 52 1003.9
20260902033512 66 110 8.0 11.0 0.00 0.00 0.00 52 1003.9
20260902033011 66 124 7.0 10.0 0.00 0.00 0.00 52 1003.8
20260902032509 65 120 6.0 9.0 0.00 0.00 0.00 52 1003.8
20260902032007 65 157 5.0 7.0 0.00 0.00 0.00 52 1003.7
20260902031506 65 147 5.0 8.0 0.00 0.00 0.00 52 1003.6
20260902031005 66 129 5.0 9.0 0.00 0.00 0.00 52 1003.5
20260902030503 66 118 6.0 9.0 0.00 0.00 0.00 51 1003.5
20260902030002 66 140 5.0 8.0 0.00 0.00 0.00 51 1003.4
20260902025502 66 134 5.0 7.0 0.00 0.00 0.00 51 1003.3
20260902025102 66 161 5.0 6.0 0.00 0.00 0.00 52 1003.3
20260902024609 68 172 4.0 8.0 0.00 0.00 0.00 52 1003.2
20260902024059 69 151 4.0 9.0 0.00 0.00 0.00 52 1003.0
20260902023555 69 145 5.0 9.0 0.00 0.00 0.00 52 1003.1
20260902023101 70 146 5.0 8.0 0.00 0.00 0.00 52 1003.0
20260902022553 70 157 6.0 10.0 0.00 0.00 0.00 51 1003.0
20260902022055 71 136 8.0 12.0 0.00 0.00 0.00 50 1003.0
20260902021554 71 147 8.0 12.0 0.00 0.00 0.00 50 1003.0
20260902021048 72 136 8.0 11.0 0.00 0.00 0.00 49 1003.1
20260902020547 73 172 9.0 11.0 0.00 0.00 0.00 49 1003.1
20260902020045 74 145 10.0 16.0 0.00 0.00 0.00 48 1003.1
20260902015543 74 146 11.0 17.0 0.00 0.00 0.00 47 1003.1
20260902015044 75 143 13.0 17.0 0.00 0.00 0.00 47 1003.2
20260902014543 75 163 11.0 16.0 0.00 0.00 0.00 47 1003.2
20260902014041 75 148 10.0 17.0 0.00 0.00 0.00 46 1003.3
20260902013537 75 149 12.0 17.0 0.00 0.00 0.00 46 1003.3
20260902013036 75 153 11.0 17.0 0.00 0.00 0.00 46 1003.4
20260902012535 76 138 10.0 17.0 0.00 0.00 0.00 46 1003.4
20260902012033 77 134 13.0 17.0 0.00 0.00 0.00 44 1003.5
20260902011532 77 153 11.0 18.0 0.00 0.00 0.00 42 1003.5
20260902011030 77 170 11.0 19.0 0.00 0.00 0.00 42 1003.6
20260902010528 76 177 12.0 19.0 0.00 0.00 0.00 42 1003.6
20260902010027 77 172 14.0 20.0 0.00 0.00 0.00 41 1003.6
20260902005526 77 147 13.0 23.0 0.00 0.00 0.00 41 1003.6
20260902005026 77 180 13.0 28.0 0.00 0.00 0.00 41 1003.7
20260902004526 78 159 11.0 28.0 0.00 0.00 0.00 40 1003.7
20260902004021 78 149 19.0 25.0 0.00 0.00 0.00 40 1003.7
20260902003518 78 150 13.0 18.0 0.00 0.00 0.00 43 1003.7
20260902003024 78 139 12.0 22.0 0.00 0.00 0.00 43 1003.7
20260902002516 79 152 14.0 22.0 0.00 0.00 0.00 41 1003.8
20260902002015 79 165 14.0 23.0 0.00 0.00 0.00 41 1004.0
20260902001515 80 149 14.0 24.0 0.00 0.00 0.00 41 1003.9
20260902001012 79 153 15.0 26.0 0.00 0.00 0.00 41 1004.0
20260902000511 79 199 15.0 26.0 0.00 0.00 0.00 41 1004.1
20260902000010 79 164 17.0 24.0 0.00 0.00 0.00 40 1004.0
20260901235507 79 155 14.0 22.0 0.00 0.00 0.00 40 1004.0
20260901235006 78 170 16.0 22.0 0.00 0.00 0.00 42 1004.1
20260901234505 79 158 15.0 25.0 0.00 0.00 0.00 40 1004.1
20260901234004 80 164 17.0 25.0 0.00 0.00 0.00 39 1004.3
20260901233502 79 184 16.0 28.0 0.00 0.00 0.00 40 1004.2
20260901233100 79 183 15.0 26.0 0.00 0.00 0.00 39 1004.4
20260901232559 80 164 20.0 32.0 0.00 0.00 0.00 38 1004.3
20260901232057 80 156 20.0 32.0 0.00 0.00 0.00 38 1004.4
20260901231556 79 142 17.0 28.0 0.00 0.00 0.00 40 1004.5
20260901231054 78 125 20.0 28.0 0.00 0.00 0.00 40 1004.5
20260901230553 78 165 12.0 24.0 0.00 0.00 0.00 41 1004.6
20260901230052 79 141 18.0 25.0 0.00 0.00 0.00 39 1004.7
20260901225549 79 165 14.0 25.0 0.00 0.01 0.00 39 1004.7
20260901225048 79 165 14.0 26.0 0.00 0.01 0.00 41 1004.8
20260901224547 79 147 15.0 30.0 0.00 0.01 0.00 41 1004.9
20260901224047 79 174 19.0 30.0 0.00 0.01 0.00 41 1005.0
20260901223544 79 156 18.0 27.0 0.00 0.01 0.00 41 1004.8
20260901223047 78 163 19.0 25.0 0.00 0.01 0.00 42 1004.9
20260901222540 77 173 15.0 26.0 0.00 0.01 0.00 42 1005.1
20260901222039 77 176 17.0 26.0 0.00 0.01 0.00 42 1005.1
20260901221538 78 165 18.0 26.0 0.00 0.01 0.00 41 1005.2
20260901221038 79 160 18.0 29.0 0.00 0.01 0.00 39 1005.4
20260901220536 80 180 20.0 29.0 0.00 0.01 0.00 38 1005.4
20260901220037 80 154 19.0 31.0 0.00 0.01 0.00 39 1005.5
20260901215532 80 183 19.0 32.0 0.00 0.01 0.00 39 1005.7
20260901215030 81 182 23.0 39.0 0.00 0.01 0.00 38 1005.7
20260901214533 81 163 17.0 39.0 0.00 0.01 0.00 39 1005.8
20260901214028 80 134 19.0 35.0 0.00 0.01 0.00 37 1005.7
20260901213526 80 155 17.0 32.0 0.00 0.01 0.00 39 1006.0
20260901213030 79 157 23.0 32.0 0.00 0.01 0.00 37 1006.0
20260901212522 78 160 18.0 29.0 0.00 0.01 0.00 42 1006.2
20260901212021 78 178 18.0 25.0 0.00 0.01 0.00 40 1006.2
20260901211520 79 169 19.0 32.0 0.00 0.01 0.00 40 1006.4
20260901211018 80 160 20.0 32.0 0.00 0.01 0.00 41 1006.5
20260901210517 79 151 21.0 28.0 0.00 0.01 0.00 43 1006.6
20260901210016 78 190 15.0 22.0 0.00 0.01 0.00 45 1006.6
20260901205514 78 165 17.0 27.0 0.00 0.01 0.00 46 1006.8
20260901205013 78 182 19.0 30.0 0.00 0.01 0.00 44 1007.0
20260901204513 78 169 21.0 30.0 0.00 0.01 0.00 43 1006.9
20260901204011 79 163 19.0 29.0 0.00 0.01 0.00 46 1006.9
20260901203509 78 181 17.0 31.0 0.00 0.01 0.00 45 1007.1
20260901203009 77 132 17.0 30.0 0.00 0.01 0.00 47 1007.2
20260901202506 78 163 21.0 34.0 0.00 0.01 0.00 46 1007.2
20260901202004 78 138 21.0 33.0 0.00 0.01 0.00 46 1007.2
20260901201503 78 170 24.0 30.0 0.00 0.01 0.00 46 1007.4
20260901201002 77 142 18.0 23.0 0.00 0.01 0.00 47 1007.3
20260901200600 76 149 17.0 24.0 0.00 0.01 0.00 47 1007.5
20260901200059 76 163 14.0 29.0 0.00 0.01 0.00 47 1007.6
20260901195558 76 167 17.0 25.0 0.00 0.01 0.00 47 1007.6
20260901195057 77 159 15.0 25.0 0.00 0.01 0.00 47 1007.5
20260901194559 77 145 19.0 26.0 0.00 0.01 0.00 46 1007.7
20260901194053 76 168 19.0 26.0 0.00 0.01 0.00 47 1007.6
20260901193552 76 175 17.0 24.0 0.00 0.01 0.00 46 1007.9
20260901193054 77 160 18.0 26.0 0.00 0.01 0.00 46 1007.9
20260901192548 76 194 16.0 26.0 0.00 0.01 0.00 48 1008.0
20260901192048 76 161 19.0 26.0 0.00 0.01 0.00 48 1008.0
20260901191546 76 130 15.0 25.0 0.00 0.01 0.00 48 1008.1
20260901191044 75 170 18.0 25.0 0.00 0.01 0.00 49 1008.2
20260901190543 75 159 13.0 24.0 0.00 0.01 0.00 50 1008.1
20260901190045 74 162 18.0 24.0 0.00 0.01 0.00 50 1008.2
20260901185541 74 153 17.0 24.0 0.00 0.01 0.00 50 1008.2
20260901185039 74 141 17.0 24.0 0.00 0.01 0.00 50 1008.2
20260901184545 74 122 18.0 28.0 0.00 0.01 0.00 50 1008.2
20260901184036 74 145 20.0 32.0 0.00 0.01 0.00 50 1008.3
20260901183534 74 135 17.0 32.0 0.00 0.01 0.00 50 1008.2
20260901183035 74 124 18.0 25.0 0.00 0.01 0.00 50 1008.2
20260901182531 74 134 16.0 24.0 0.00 0.01 0.00 50 1008.2
20260901182031 74 126 15.0 24.0 0.00 0.01 0.00 50 1008.3
20260901181533 74 119 19.0 24.0 0.00 0.01 0.00 50 1008.3
20260901181026 73 162 14.0 24.0 0.00 0.01 0.00 50 1008.6
20260901180525 73 126 19.0 26.0 0.00 0.01 0.00 50 1008.6
20260901180024 73 133 17.0 26.0 0.00 0.01 0.00 50 1008.7
20260901175522 73 138 18.0 25.0 0.00 0.01 0.00 50 1008.8
20260901175021 73 125 16.0 25.0 0.00 0.01 0.00 49 1008.8
20260901174519 72 132 17.0 25.0 0.00 0.01 0.00 49 1008.8
20260901174018 72 104 16.0 25.0 0.00 0.01 0.00 48 1008.9
20260901173520 71 113 11.0 19.0 0.00 0.01 0.00 48 1009.0
20260901173015 72 115 13.0 21.0 0.00 0.01 0.00 49 1009.2
20260901172515 72 122 13.0 21.0 0.00 0.01 0.00 48 1009.1
20260901172012 71 133 15.0 19.0 0.00 0.01 0.00 47 1009.1
20260901171512 71 111 13.0 19.0 0.00 0.01 0.00 46 1009.2
20260901171009 70 92 11.0 16.0 0.00 0.01 0.00 44 1009.3
20260901170507 70 113 10.0 15.0 0.00 0.01 0.00 45 1009.3
20260901170007 69 132 10.0 19.0 0.00 0.01 0.00 46 1009.5
20260901165504 69 125 12.0 19.0 0.00 0.01 0.00 46 1009.7
20260901165005 69 137 11.0 19.0 0.00 0.01 0.00 44 1009.7
20260901164502 69 124 9.0 19.0 0.00 0.01 0.00 46 1009.7
20260901164100 70 165 7.0 16.0 0.00 0.01 0.00 46 1009.7
20260901163559 70 135 10.0 17.0 0.00 0.01 0.00 47 1009.7
20260901163057 70 117 10.0 17.0 0.00 0.01 0.00 47 1009.7
20260901162558 70 143 10.0 15.0 0.00 0.01 0.00 46 1009.8
20260901162053 70 154 11.0 17.0 0.00 0.01 0.00 45 1010.0
20260901161554 69 167 11.0 17.0 0.00 0.01 0.00 45 1010.0
20260901161050 69 154 11.0 17.0 0.00 0.01 0.00 45 1010.1
20260901160549 69 137 10.0 15.0 0.00 0.01 0.00 44 1010.2
20260901160048 68 144 10.0 15.0 0.00 0.01 0.00 41 1010.3
20260901155547 67 157 8.0 15.0 0.00 0.01 0.00 39 1010.4
20260901155045 67 185 9.0 15.0 0.00 0.01 0.00 36 1010.5
20260901154544 67 178 9.0 15.0 0.00 0.01 0.00 30 1010.6
20260901154042 67 191 9.0 15.0 0.00 0.01 0.00 26 1010.6
20260901153545 67 193 10.0 14.0 0.00 0.01 0.00 25 1010.6
20260901153042 66 191 8.0 13.0 0.00 0.01 0.00 13 1010.8
20260901152537 65 174 9.0 13.0 0.00 0.01 0.00 9 1010.8
20260901152036 65 153 9.0 13.0 0.00 0.01 0.00 2 1010.9
20260901151535 64 199 9.0 13.0 0.00 0.01 0.00 1 1010.9
20260901151035 64 209 9.0 13.0 0.00 0.01 0.00 1 1011.0
20260901150531 63 199 10.0 13.0 0.00 0.01 0.00 1 1011.0
20260901150031 63 176 9.0 13.0 0.00 0.01 0.00 1 1011.1
20260901145530 63 212 9.0 13.0 0.00 0.01 0.00 1 1011.1
20260901145028 62 185 8.0 14.0 0.00 0.01 0.00 1 1011.1
20260901144529 62 203 7.0 13.0 0.00 0.01 0.00 1 1011.1
20260901144024 62 199 9.0 13.0 0.00 0.01 0.00 1 1011.1